Time,TemperatureF,DewpointF,PressureIn,WindDirection,WindDirectionDegrees,WindSpeedMPH,WindSpeedGustMPH,Humidity,HourlyPrecipIn,Conditions,Clouds,dailyrainin,SoftwareType,DateUTC
2013-04-17 00:02:00,53.3,49.8,30.01,SW,225,1.6,2.7,88,0.00,,,0.00,WUHU216HW,2013-04-17 04:02:00,
2013-04-17 00:07:00,53.3,49.8,30.01,SSW,203,1.8,3.4,88,0.00,,,0.00,WUHU216HW,2013-04-17 04:07:00,
2013-04-17 00:12:00,53.3,49.8,30.02,SW,225,2.2,3.4,88,0.00,,,0.00,WUHU216HW,2013-04-17 04:12:00,
2013-04-17 00:17:00,53.3,49.8,30.02,South,180,1.6,3.4,88,0.00,,,0.00,WUHU216HW,2013-04-17 04:17:00,
2013-04-17 00:22:00,53.3,49.8,30.01,SW,225,1.6,2.5,88,0.00,,,0.00,WUHU216HW,2013-04-17 04:22:00,
2013-04-17 00:27:00,53.3,49.8,30.02,SW,225,0.9,2.5,88,0.00,,,0.00,WUHU216HW,2013-04-17 04:27:00,
2013-04-17 00:32:00,53.3,49.8,30.02,SW,225,2.0,2.5,88,0.00,,,0.00,WUHU216HW,2013-04-17 04:32:00,
2013-04-17 00:37:00,53.3,49.8,30.02,SW,225,1.6,2.7,88,0.00,,,0.00,WUHU216HW,2013-04-17 04:37:00,
2013-04-17 00:42:00,53.3,49.8,30.02,SW,225,1.1,2.9,88,0.00,,,0.00,WUHU216HW,2013-04-17 04:42:00,
2013-04-17 00:47:00,53.5,50.0,30.02,SW,225,2.0,2.9,88,0.00,,,0.00,WUHU216HW,2013-04-17 04:47:00,
2013-04-17 00:52:00,53.5,50.0,30.02,SSW,203,2.0,2.0,88,0.00,,,0.00,WUHU216HW,2013-04-17 04:52:00,
2013-04-17 00:57:00,53.5,50.0,30.02,South,180,0.9,2.9,88,0.00,,,0.00,WUHU216HW,2013-04-17 04:57:00,
2013-04-17 01:02:00,53.5,50.0,30.02,SW,225,1.3,2.9,88,0.00,,,0.00,WUHU216HW,2013-04-17 05:02:00,
2013-04-17 01:07:00,53.5,50.0,30.02,SW,225,1.1,2.2,88,0.00,,,0.00,WUHU216HW,2013-04-17 05:07:00,
2013-04-17 01:12:00,53.5,50.0,30.02,SW,225,0.7,1.6,88,0.00,,,0.00,WUHU216HW,2013-04-17 05:12:00,
2013-04-17 01:17:00,53.5,50.0,30.02,SW,225,0.0,1.6,88,0.00,,,0.00,WUHU216HW,2013-04-17 05:17:00,
2013-04-17 01:22:00,53.5,50.0,30.02,SSW,203,1.1,1.1,88,0.00,,,0.00,WUHU216HW,2013-04-17 05:22:00,
2013-04-17 01:27:00,53.5,50.0,30.02,SSW,203,1.1,1.1,88,0.00,,,0.00,WUHU216HW,2013-04-17 05:27:00,
2013-04-17 01:32:00,53.5,50.3,30.02,SSW,203,1.1,1.3,89,0.00,,,0.00,WUHU216HW,2013-04-17 05:32:00,
2013-04-17 01:37:00,53.5,50.3,30.02,SSW,203,1.1,1.3,89,0.00,,,0.00,WUHU216HW,2013-04-17 05:37:00,
2013-04-17 01:42:00,53.5,50.3,30.01,SSW,203,1.1,1.1,89,0.00,,,0.00,WUHU216HW,2013-04-17 05:42:00,
2013-04-17 01:47:00,53.6,50.5,30.01,SSW,203,0.4,1.3,89,0.00,,,0.00,WUHU216HW,2013-04-17 05:47:00,
2013-04-17 01:53:00,53.6,50.5,30.01,SSE,158,1.1,1.6,89,0.00,,,0.00,WUHU216HW,2013-04-17 05:53:00,
2013-04-17 01:58:00,53.6,50.5,30.01,SW,225,2.9,2.9,89,0.00,,,0.00,WUHU216HW,2013-04-17 05:58:00,
2013-04-17 02:03:00,53.8,50.7,30.01,SSW,203,1.1,2.9,89,0.00,,,0.00,WUHU216HW,2013-04-17 06:03:00,
2013-04-17 02:08:00,54.0,50.9,30.01,SW,225,1.1,1.8,89,0.00,,,0.00,WUHU216HW,2013-04-17 06:08:00,
2013-04-17 02:13:00,54.2,51.0,30.01,SW,225,0.4,1.8,89,0.00,,,0.00,WUHU216HW,2013-04-17 06:13:00,
2013-04-17 02:18:00,54.4,51.2,30.01,SW,225,1.3,1.3,89,0.00,,,0.00,WUHU216HW,2013-04-17 06:18:00,
2013-04-17 02:23:00,54.4,51.2,30.01,SW,225,1.1,1.3,89,0.00,,,0.00,WUHU216HW,2013-04-17 06:23:00,
2013-04-17 02:28:00,54.7,51.5,30.01,SW,225,1.6,1.6,89,0.00,,,0.00,WUHU216HW,2013-04-17 06:28:00,
2013-04-17 02:33:00,54.7,51.5,30.01,SW,225,0.7,1.6,89,0.00,,,0.00,WUHU216HW,2013-04-17 06:33:00,
2013-04-17 02:38:00,54.9,51.7,30.01,SW,225,0.0,0.7,89,0.00,,,0.00,WUHU216HW,2013-04-17 06:38:00,
2013-04-17 02:43:00,54.9,51.7,30.02,SW,225,0.0,0.4,89,0.00,,,0.00,WUHU216HW,2013-04-17 06:43:00,
2013-04-17 02:48:00,55.1,51.8,30.01,SW,225,0.0,0.0,89,0.00,,,0.00,WUHU216HW,2013-04-17 06:48:00,
2013-04-17 02:53:00,55.1,51.8,30.01,SW,225,0.0,0.0,89,0.00,,,0.00,WUHU216HW,2013-04-17 06:53:00,
2013-04-17 02:58:00,55.1,51.8,30.01,SW,225,0.0,0.7,89,0.00,,,0.00,WUHU216HW,2013-04-17 06:58:00,
2013-04-17 03:03:00,55.1,51.8,30.01,SW,225,0.0,0.7,89,0.00,,,0.00,WUHU216HW,2013-04-17 07:03:00,
2013-04-17 03:08:00,55.1,51.8,30.02,SW,225,0.0,0.0,89,0.00,,,0.00,WUHU216HW,2013-04-17 07:08:00,
2013-04-17 03:13:00,55.3,52.0,30.02,SW,225,0.2,0.7,89,0.00,,,0.00,WUHU216HW,2013-04-17 07:13:00,
2013-04-17 03:18:00,55.3,52.0,30.02,SW,225,0.0,0.7,89,0.00,,,0.00,WUHU216HW,2013-04-17 07:18:00,
2013-04-17 03:23:00,55.3,52.0,30.02,SW,225,0.0,0.7,89,0.00,,,0.00,WUHU216HW,2013-04-17 07:23:00,
2013-04-17 03:28:00,55.4,52.2,30.02,SW,225,0.0,0.7,89,0.00,,,0.00,WUHU216HW,2013-04-17 07:28:00,
2013-04-17 03:33:00,55.4,52.2,30.02,SW,225,0.0,0.0,89,0.00,,,0.00,WUHU216HW,2013-04-17 07:33:00,
2013-04-17 03:38:00,55.4,52.2,30.02,NW,315,0.0,1.3,89,0.00,,,0.00,WUHU216HW,2013-04-17 07:38:00,
2013-04-17 03:43:00,55.4,52.2,30.02,NNW,338,0.0,1.3,89,0.00,,,0.00,WUHU216HW,2013-04-17 07:43:00,
2013-04-17 03:48:00,55.4,52.2,30.02,NW,315,0.0,0.4,89,0.00,,,0.00,WUHU216HW,2013-04-17 07:48:00,
2013-04-17 03:53:00,55.4,52.2,30.02,NNE,23,1.3,1.3,89,0.00,,,0.00,WUHU216HW,2013-04-17 07:53:00,
2013-04-17 03:58:00,55.6,52.4,30.01,NNW,338,0.0,1.3,89,0.00,,,0.00,WUHU216HW,2013-04-17 07:58:00,
2013-04-17 04:03:00,55.6,52.4,30.02,NNW,338,0.0,1.1,89,0.00,,,0.00,WUHU216HW,2013-04-17 08:03:00,
2013-04-17 04:08:00,55.6,52.4,30.02,North,0,1.6,1.6,89,0.00,,,0.00,WUHU216HW,2013-04-17 08:08:00,
2013-04-17 04:13:00,55.4,52.6,30.02,North,0,1.1,2.2,90,0.00,,,0.00,WUHU216HW,2013-04-17 08:13:00,
2013-04-17 04:18:00,55.1,52.2,30.02,NE,45,1.8,2.7,90,0.00,,,0.00,WUHU216HW,2013-04-17 08:18:00,
2013-04-17 04:23:00,54.4,51.2,30.02,NNE,23,2.5,4.5,89,0.00,,,0.00,WUHU216HW,2013-04-17 08:23:00,
2013-04-17 04:28:00,53.6,50.5,30.02,NE,45,1.1,4.5,89,0.00,,,0.00,WUHU216HW,2013-04-17 08:28:00,
2013-04-17 04:33:00,53.3,50.1,30.02,NNE,23,0.9,4.0,89,0.00,,,0.00,WUHU216HW,2013-04-17 08:33:00,
2013-04-17 04:38:00,52.7,49.6,30.02,West,270,0.9,1.8,89,0.00,,,0.00,WUHU216HW,2013-04-17 08:38:00,
2013-04-17 04:43:00,52.4,49.2,30.03,NNW,338,1.6,1.8,89,0.00,,,0.00,WUHU216HW,2013-04-17 08:43:00,
2013-04-17 04:48:00,52.0,48.9,30.03,North,0,0.4,2.7,89,0.00,,,0.00,WUHU216HW,2013-04-17 08:48:00,
2013-04-17 04:53:00,51.8,48.7,30.03,NW,315,0.9,2.7,89,0.00,,,0.00,WUHU216HW,2013-04-17 08:53:00,
2013-04-17 04:58:00,51.7,48.5,30.02,North,0,1.8,1.8,89,0.00,,,0.00,WUHU216HW,2013-04-17 08:58:00,
2013-04-17 05:03:00,51.5,48.3,30.03,East,90,2.5,2.5,89,0.00,,,0.00,WUHU216HW,2013-04-17 09:03:00,
2013-04-17 05:08:00,51.3,48.2,30.03,NNW,338,1.1,2.5,89,0.00,,,0.00,WUHU216HW,2013-04-17 09:08:00,
2013-04-17 05:13:00,51.1,48.0,30.03,NNW,338,0.4,1.8,89,0.00,,,0.00,WUHU216HW,2013-04-17 09:13:00,
2013-04-17 05:18:00,51.1,48.0,30.03,North,0,0.4,1.6,89,0.00,,,0.00,WUHU216HW,2013-04-17 09:18:00,
2013-04-17 05:23:00,50.9,47.4,30.03,North,0,0.7,0.9,88,0.00,,,0.00,WUHU216HW,2013-04-17 09:23:00,
2013-04-17 05:28:00,50.9,47.4,30.03,NNW,338,0.4,0.7,88,0.00,,,0.00,WUHU216HW,2013-04-17 09:28:00,
2013-04-17 05:33:00,50.8,47.3,30.03,NNW,338,0.0,1.8,88,0.00,,,0.00,WUHU216HW,2013-04-17 09:33:00,
2013-04-17 05:38:00,50.8,47.0,30.03,NW,315,0.0,1.8,87,0.00,,,0.00,WUHU216HW,2013-04-17 09:38:00,
2013-04-17 05:43:00,50.8,47.0,30.03,NNW,338,0.0,1.3,87,0.00,,,0.00,WUHU216HW,2013-04-17 09:43:00,
2013-04-17 05:48:00,50.8,46.6,30.03,North,0,0.2,1.1,86,0.00,,,0.00,WUHU216HW,2013-04-17 09:48:00,
2013-04-17 05:53:00,50.6,46.4,30.03,North,0,0.0,2.0,86,0.00,,,0.00,WUHU216HW,2013-04-17 09:53:00,
2013-04-17 05:58:00,50.6,46.2,30.03,North,0,0.4,2.0,85,0.00,,,0.00,WUHU216HW,2013-04-17 09:58:00,
2013-04-17 06:03:00,50.6,46.2,30.03,NW,315,0.4,1.1,85,0.00,,,0.00,WUHU216HW,2013-04-17 10:03:00,
2013-04-17 06:08:00,50.4,45.7,30.03,NNW,338,0.9,2.5,84,0.00,,,0.00,WUHU216HW,2013-04-17 10:08:00,
2013-04-17 06:13:00,50.4,45.4,30.04,NNW,338,1.1,2.5,83,0.00,,,0.00,WUHU216HW,2013-04-17 10:13:00,
2013-04-17 06:18:00,50.4,45.1,30.04,NW,315,2.2,2.5,82,0.00,,,0.00,WUHU216HW,2013-04-17 10:18:00,
2013-04-17 06:23:00,50.4,44.5,30.04,North,0,1.1,4.0,80,0.00,,,0.00,WUHU216HW,2013-04-17 10:23:00,
2013-04-17 06:28:00,50.4,44.5,30.04,WSW,248,1.8,4.0,80,0.00,,,0.00,WUHU216HW,2013-04-17 10:28:00,
2013-04-17 06:33:00,50.4,44.1,30.04,North,0,2.9,2.9,79,0.00,,,0.00,WUHU216HW,2013-04-17 10:33:00,
2013-04-17 06:38:00,50.4,44.1,30.04,NNE,23,1.6,3.4,79,0.00,,,0.00,WUHU216HW,2013-04-17 10:38:00,
2013-04-17 06:43:00,50.2,43.9,30.05,North,0,0.9,4.7,79,0.00,,,0.00,WUHU216HW,2013-04-17 10:43:00,
2013-04-17 06:48:00,50.2,43.9,30.05,NNE,23,1.6,4.7,79,0.00,,,0.00,WUHU216HW,2013-04-17 10:48:00,
2013-04-17 06:53:00,50.0,44.1,30.06,NNW,338,0.4,2.0,80,0.00,,,0.00,WUHU216HW,2013-04-17 10:53:00,
2013-04-17 06:58:00,50.0,44.1,30.06,NNW,338,0.9,2.0,80,0.00,,,0.00,WUHU216HW,2013-04-17 10:58:00,
2013-04-17 07:03:00,50.0,44.1,30.06,NNW,338,1.8,3.8,80,0.00,,,0.00,WUHU216HW,2013-04-17 11:03:00,
2013-04-17 07:08:00,50.0,43.7,30.06,WSW,248,0.7,3.8,79,0.00,,,0.00,WUHU216HW,2013-04-17 11:08:00,
2013-04-17 07:13:00,50.0,43.7,30.06,NW,315,0.9,3.4,79,0.00,,,0.00,WUHU216HW,2013-04-17 11:13:00,
2013-04-17 07:18:00,50.2,43.6,30.07,NNE,23,0.7,4.7,78,0.00,,,0.00,WUHU216HW,2013-04-17 11:18:00,
2013-04-17 07:23:00,50.4,43.7,30.07,SW,225,0.4,4.7,78,0.00,,,0.00,WUHU216HW,2013-04-17 11:23:00,
2013-04-17 07:28:00,50.4,43.1,30.08,North,0,2.2,3.8,76,0.00,,,0.00,WUHU216HW,2013-04-17 11:28:00,
2013-04-17 07:33:00,50.6,43.3,30.08,NNW,338,0.0,3.8,76,0.00,,,0.00,WUHU216HW,2013-04-17 11:33:00,
2013-04-17 07:38:00,50.6,42.6,30.09,WNW,293,0.9,2.5,74,0.00,,,0.00,WUHU216HW,2013-04-17 11:38:00,
2013-04-17 07:43:00,50.6,43.3,30.09,North,0,1.8,1.8,76,0.00,,,0.00,WUHU216HW,2013-04-17 11:43:00,
2013-04-17 07:48:00,50.4,42.0,30.09,NW,315,3.4,3.4,73,0.00,,,0.00,WUHU216HW,2013-04-17 11:48:00,
2013-04-17 07:53:00,50.6,41.6,30.10,North,0,0.9,3.4,71,0.00,,,0.00,WUHU216HW,2013-04-17 11:53:00,
2013-04-17 07:58:00,50.8,41.4,30.10,NW,315,0.2,1.8,70,0.00,,,0.00,WUHU216HW,2013-04-17 11:58:00,
2013-04-17 08:03:00,50.9,41.6,30.10,NW,315,1.1,2.2,70,0.00,,,0.00,WUHU216HW,2013-04-17 12:03:00,
2013-04-17 08:08:00,51.7,42.3,30.10,NNW,338,0.7,2.2,70,0.00,,,0.00,WUHU216HW,2013-04-17 12:08:00,
2013-04-17 08:13:00,52.4,42.6,30.10,NNE,23,1.1,2.2,69,0.00,,,0.00,WUHU216HW,2013-04-17 12:13:00,
2013-04-17 08:18:00,52.9,43.0,30.10,North,0,1.1,2.2,69,0.00,,,0.00,WUHU216HW,2013-04-17 12:18:00,
2013-04-17 08:23:00,53.6,43.3,30.10,North,0,1.1,1.3,68,0.00,,,0.00,WUHU216HW,2013-04-17 12:23:00,
2013-04-17 08:28:00,53.8,42.3,30.11,North,0,0.2,1.8,65,0.00,,,0.00,WUHU216HW,2013-04-17 12:28:00,
2013-04-17 08:33:00,54.4,42.0,30.11,NNE,23,1.6,2.0,63,0.00,,,0.00,WUHU216HW,2013-04-17 12:33:00,
2013-04-17 08:38:00,54.2,41.4,30.11,WNW,293,1.1,6.3,62,0.00,,,0.00,WUHU216HW,2013-04-17 12:38:00,
2013-04-17 08:43:00,54.5,40.5,30.11,WSW,248,1.1,6.3,59,0.00,,,0.00,WUHU216HW,2013-04-17 12:43:00,
2013-04-17 08:48:00,55.1,41.4,30.11,NW,315,0.9,2.5,60,0.00,,,0.00,WUHU216HW,2013-04-17 12:48:00,
2013-04-17 08:53:00,55.6,41.5,30.11,WNW,293,0.9,3.6,59,0.00,,,0.00,WUHU216HW,2013-04-17 12:53:00,
2013-04-17 08:58:00,55.3,39.7,30.11,NNW,338,3.4,4.0,56,0.00,,,0.00,WUHU216HW,2013-04-17 12:58:00,
2013-04-17 09:03:00,55.4,40.3,30.12,WNW,293,1.8,4.0,57,0.00,,,0.00,WUHU216HW,2013-04-17 13:03:00,
2013-04-17 09:08:00,56.2,41.6,30.12,NE,45,1.8,2.2,58,0.00,,,0.00,WUHU216HW,2013-04-17 13:08:00,
2013-04-17 09:13:00,55.6,39.6,30.12,North,0,4.7,4.7,55,0.00,,,0.00,WUHU216HW,2013-04-17 13:13:00,
2013-04-17 09:18:00,55.4,39.9,30.12,NE,45,3.1,4.7,56,0.00,,,0.00,WUHU216HW,2013-04-17 13:18:00,
2013-04-17 09:23:00,56.2,40.6,30.11,North,0,1.3,4.0,56,0.00,,,0.00,WUHU216HW,2013-04-17 13:23:00,
2013-04-17 09:28:00,57.2,43.1,30.12,North,0,0.7,4.0,59,0.00,,,0.00,WUHU216HW,2013-04-17 13:28:00,
2013-04-17 09:33:00,58.0,43.3,30.11,North,0,1.3,1.6,58,0.00,,,0.00,WUHU216HW,2013-04-17 13:33:00,
2013-04-17 09:38:00,57.6,40.1,30.12,North,0,2.5,5.8,52,0.00,,,0.00,WUHU216HW,2013-04-17 13:38:00,
2013-04-17 09:44:00,56.5,40.5,30.12,North,0,1.6,5.8,55,0.00,,,0.00,WUHU216HW,2013-04-17 13:44:00,
2013-04-17 09:49:00,57.2,41.2,30.12,NW,315,0.4,3.8,55,0.00,,,0.00,WUHU216HW,2013-04-17 13:49:00,
2013-04-17 09:54:00,57.8,41.2,30.11,NNW,338,0.4,3.8,54,0.00,,,0.00,WUHU216HW,2013-04-17 13:54:00,
2013-04-17 09:59:00,58.0,40.0,30.11,NNE,23,4.7,4.7,51,0.00,,,0.00,WUHU216HW,2013-04-17 13:59:00,
2013-04-17 10:04:00,57.1,40.2,30.12,NNW,338,1.3,4.7,53,0.00,,,0.00,WUHU216HW,2013-04-17 14:04:00,
2013-04-17 10:09:00,57.2,40.8,30.12,NNW,338,1.8,4.9,54,0.00,,,0.00,WUHU216HW,2013-04-17 14:09:00,
2013-04-17 10:14:00,57.6,39.3,30.12,NNE,23,2.7,5.1,50,0.00,,,0.00,WUHU216HW,2013-04-17 14:14:00,
2013-04-17 10:19:00,57.6,40.6,30.12,NNW,338,0.4,5.1,53,0.00,,,0.00,WUHU216HW,2013-04-17 14:19:00,
2013-04-17 10:24:00,58.3,41.2,30.12,North,0,1.1,4.0,53,0.00,,,0.00,WUHU216HW,2013-04-17 14:24:00,
2013-04-17 10:29:00,59.4,42.8,30.12,WSW,248,0.9,2.5,54,0.00,,,0.00,WUHU216HW,2013-04-17 14:29:00,
2013-04-17 10:34:00,60.1,42.9,30.12,North,0,1.1,2.5,53,0.00,,,0.00,WUHU216HW,2013-04-17 14:34:00,
2013-04-17 10:39:00,60.5,41.2,30.12,NNW,338,1.8,3.8,49,0.00,,,0.00,WUHU216HW,2013-04-17 14:39:00,
2013-04-17 10:44:00,60.3,40.5,30.12,NNW,338,1.8,3.8,48,0.00,,,0.00,WUHU216HW,2013-04-17 14:44:00,
2013-04-17 10:49:00,60.1,41.5,30.12,SSE,158,1.3,5.4,50,0.00,,,0.00,WUHU216HW,2013-04-17 14:49:00,
2013-04-17 10:54:00,60.8,42.1,30.12,NNE,23,3.6,5.4,50,0.00,,,0.00,WUHU216HW,2013-04-17 14:54:00,
2013-04-17 10:59:00,60.5,41.2,30.12,NW,315,3.4,6.0,49,0.00,,,0.00,WUHU216HW,2013-04-17 14:59:00,
2013-04-17 11:04:00,59.9,40.8,30.12,NNE,23,0.7,6.0,49,0.00,,,0.00,WUHU216HW,2013-04-17 15:04:00,
2013-04-17 11:09:00,60.5,41.2,30.12,South,180,1.6,5.4,49,0.00,,,0.00,WUHU216HW,2013-04-17 15:09:00,
2013-04-17 11:14:00,60.8,41.0,30.12,NE,45,4.0,5.4,48,0.00,,,0.00,WUHU216HW,2013-04-17 15:14:00,
2013-04-17 11:19:00,60.5,38.9,30.11,North,0,1.6,4.0,45,0.00,,,0.00,WUHU216HW,2013-04-17 15:19:00,
2013-04-17 11:24:00,60.5,39.5,30.11,North,0,4.7,4.7,46,0.00,,,0.00,WUHU216HW,2013-04-17 15:24:00,
2013-04-17 11:29:00,60.7,40.8,30.11,NE,45,4.3,6.3,48,0.00,,,0.00,WUHU216HW,2013-04-17 15:29:00,
2013-04-17 11:34:00,60.7,41.9,30.11,North,0,2.2,6.3,50,0.00,,,0.00,WUHU216HW,2013-04-17 15:34:00,
2013-04-17 11:39:00,60.8,41.6,30.11,North,0,1.6,4.7,49,0.00,,,0.00,WUHU216HW,2013-04-17 15:39:00,
2013-04-17 11:44:00,61.9,41.9,30.11,North,0,2.9,4.7,48,0.00,,,0.00,WUHU216HW,2013-04-17 15:44:00,
2013-04-17 11:49:00,62.1,42.1,30.11,NNE,23,1.8,5.4,48,0.00,,,0.00,WUHU216HW,2013-04-17 15:49:00,
2013-04-17 11:54:00,62.1,41.5,30.11,NE,45,1.3,5.4,47,0.00,,,0.00,WUHU216HW,2013-04-17 15:54:00,
2013-04-17 11:59:00,63.2,43.1,30.11,NNW,338,1.1,5.4,48,0.00,,,0.00,WUHU216HW,2013-04-17 15:59:00,
2013-04-17 12:04:00,63.4,40.3,30.11,NNW,338,1.6,2.9,43,0.00,,,0.00,WUHU216HW,2013-04-17 16:04:00,
2013-04-17 12:09:00,63.5,40.0,30.11,NE,45,7.2,7.2,42,0.00,,,0.00,WUHU216HW,2013-04-17 16:09:00,
2013-04-17 12:14:00,63.7,41.2,30.11,North,0,2.5,7.2,44,0.00,,,0.00,WUHU216HW,2013-04-17 16:14:00,
2013-04-17 12:19:00,63.2,39.6,30.11,NNE,23,3.6,4.9,42,0.00,,,0.00,WUHU216HW,2013-04-17 16:19:00,
2013-04-17 12:24:00,62.3,40.0,30.11,NNE,23,2.0,5.6,44,0.00,,,0.00,WUHU216HW,2013-04-17 16:24:00,
2013-04-17 12:29:00,62.6,39.7,30.11,NE,45,2.5,5.6,43,0.00,,,0.00,WUHU216HW,2013-04-17 16:29:00,
2013-04-17 12:34:00,63.7,41.9,30.11,North,0,2.2,3.4,45,0.00,,,0.00,WUHU216HW,2013-04-17 16:34:00,
2013-04-17 12:39:00,64.3,41.1,30.11,North,0,1.1,3.4,43,0.00,,,0.00,WUHU216HW,2013-04-17 16:39:00,
2013-04-17 12:44:00,64.1,41.1,30.11,North,0,1.8,3.4,43,0.00,,,0.00,WUHU216HW,2013-04-17 16:44:00,
2013-04-17 12:49:00,63.7,39.0,30.11,ENE,68,1.8,5.4,40,0.00,,,0.00,WUHU216HW,2013-04-17 16:49:00,
2013-04-17 12:54:00,64.1,41.6,30.11,NNE,23,1.1,5.4,44,0.00,,,0.00,WUHU216HW,2013-04-17 16:54:00,
2013-04-17 12:59:00,65.0,40.7,30.10,WNW,293,2.7,3.4,41,0.00,,,0.00,WUHU216HW,2013-04-17 16:59:00,
2013-04-17 13:04:00,64.4,40.8,30.10,SW,225,1.8,3.6,42,0.00,,,0.00,WUHU216HW,2013-04-17 17:04:00,
2013-04-17 13:09:00,64.8,39.3,30.11,NNW,338,1.6,3.6,39,0.00,,,0.00,WUHU216HW,2013-04-17 17:09:00,
2013-04-17 13:14:00,64.8,39.3,30.11,NW,315,2.5,3.6,39,0.00,,,0.00,WUHU216HW,2013-04-17 17:14:00,
2013-04-17 13:19:00,63.9,38.4,30.11,WNW,293,1.1,2.7,39,0.00,,,0.00,WUHU216HW,2013-04-17 17:19:00,
2013-04-17 13:24:00,64.1,38.5,30.10,NNW,338,3.4,4.0,39,0.00,,,0.00,WUHU216HW,2013-04-17 17:24:00,
2013-04-17 13:29:00,64.4,39.6,30.11,NNE,23,3.1,4.0,40,0.00,,,0.00,WUHU216HW,2013-04-17 17:29:00,
2013-04-17 13:34:00,64.6,39.8,30.11,SE,135,2.0,3.8,40,0.00,,,0.00,WUHU216HW,2013-04-17 17:34:00,
2013-04-17 13:39:00,65.9,42.1,30.10,NNW,338,1.8,3.8,42,0.00,,,0.00,WUHU216HW,2013-04-17 17:39:00,
2013-04-17 13:44:00,65.9,40.1,30.10,North,0,1.1,2.5,39,0.00,,,0.00,WUHU216HW,2013-04-17 17:44:00,
2013-04-17 13:49:00,65.5,38.4,30.10,WSW,248,0.7,4.7,37,0.00,,,0.00,WUHU216HW,2013-04-17 17:49:00,
2013-04-17 13:54:00,66.1,39.6,30.10,WNW,293,1.8,4.7,38,0.00,,,0.00,WUHU216HW,2013-04-17 17:54:00,
2013-04-17 13:59:00,66.4,39.3,30.10,NNW,338,1.1,3.1,37,0.00,,,0.00,WUHU216HW,2013-04-17 17:59:00,
2013-04-17 14:04:00,67.1,41.3,30.10,WSW,248,1.6,2.7,39,0.00,,,0.00,WUHU216HW,2013-04-17 18:04:00,
2013-04-17 14:09:00,67.5,41.6,30.11,North,0,1.3,2.7,39,0.00,,,0.00,WUHU216HW,2013-04-17 18:09:00,
2013-04-17 14:14:00,67.5,38.7,30.11,SE,135,1.8,2.9,35,0.00,,,0.00,WUHU216HW,2013-04-17 18:14:00,
2013-04-17 14:19:00,66.8,37.4,30.11,North,0,2.5,2.9,34,0.00,,,0.00,WUHU216HW,2013-04-17 18:19:00,
2013-04-17 14:24:00,66.4,38.5,30.11,WSW,248,2.0,3.4,36,0.00,,,0.00,WUHU216HW,2013-04-17 18:24:00,
2013-04-17 14:29:00,66.6,39.3,30.11,SE,135,2.0,3.4,37,0.00,,,0.00,WUHU216HW,2013-04-17 18:29:00,
2013-04-17 14:34:00,66.4,37.1,30.11,NNW,338,1.1,4.7,34,0.00,,,0.00,WUHU216HW,2013-04-17 18:34:00,
2013-04-17 14:39:00,66.1,38.2,30.11,ENE,68,2.2,4.7,36,0.00,,,0.00,WUHU216HW,2013-04-17 18:39:00,
2013-04-17 14:44:00,66.6,39.3,30.11,WSW,248,1.1,4.7,37,0.00,,,0.00,WUHU216HW,2013-04-17 18:44:00,
2013-04-17 14:49:00,67.0,39.7,30.11,NNW,338,2.5,4.0,37,0.00,,,0.00,WUHU216HW,2013-04-17 18:49:00,
2013-04-17 14:54:00,66.8,38.1,30.11,NNW,338,1.1,5.6,35,0.00,,,0.00,WUHU216HW,2013-04-17 18:54:00,
2013-04-17 14:59:00,67.3,40.8,30.10,SW,225,0.7,5.6,38,0.00,,,0.00,WUHU216HW,2013-04-17 18:59:00,
2013-04-17 15:04:00,68.0,41.4,30.10,SE,135,1.6,2.5,38,0.00,,,0.00,WUHU216HW,2013-04-17 19:04:00,
2013-04-17 15:09:00,68.0,40.6,30.10,NW,315,1.3,3.4,37,0.00,,,0.00,WUHU216HW,2013-04-17 19:09:00,
2013-04-17 15:14:00,67.9,39.0,30.10,NNW,338,1.1,4.5,35,0.00,,,0.00,WUHU216HW,2013-04-17 19:14:00,
2013-04-17 15:19:00,67.5,40.1,30.10,WSW,248,1.3,4.5,37,0.00,,,0.00,WUHU216HW,2013-04-17 19:19:00,
2013-04-17 15:24:00,67.1,38.4,30.10,NE,45,2.5,2.9,35,0.00,,,0.00,WUHU216HW,2013-04-17 19:24:00,
2013-04-17 15:29:00,66.6,37.9,30.10,NW,315,1.8,4.3,35,0.00,,,0.00,WUHU216HW,2013-04-17 19:29:00,
2013-04-17 15:34:00,67.0,39.7,30.11,ESE,113,0.9,4.3,37,0.00,,,0.00,WUHU216HW,2013-04-17 19:34:00,
2013-04-17 15:39:00,66.6,37.2,30.11,SW,225,1.3,3.1,34,0.00,,,0.00,WUHU216HW,2013-04-17 19:39:00,
2013-04-17 15:44:00,66.1,36.7,30.11,NNE,23,1.8,3.1,34,0.00,,,0.00,WUHU216HW,2013-04-17 19:44:00,
2013-04-17 15:49:00,65.5,37.7,30.10,NNW,338,0.0,2.5,36,0.00,,,0.00,WUHU216HW,2013-04-17 19:49:00,
2013-04-17 15:54:00,65.5,36.3,30.10,NE,45,3.8,3.8,34,0.00,,,0.00,WUHU216HW,2013-04-17 19:54:00,
2013-04-17 15:59:00,65.2,35.2,30.10,NW,315,1.6,3.8,33,0.00,,,0.00,WUHU216HW,2013-04-17 19:59:00,
2013-04-17 16:04:00,65.0,35.7,30.10,NNW,338,2.5,2.5,34,0.00,,,0.00,WUHU216HW,2013-04-17 20:04:00,
2013-04-17 16:09:00,65.0,37.2,30.10,North,0,1.8,2.5,36,0.00,,,0.00,WUHU216HW,2013-04-17 20:09:00,
2013-04-17 16:14:00,65.2,37.4,30.11,North,0,1.1,2.5,36,0.00,,,0.00,WUHU216HW,2013-04-17 20:14:00,
2013-04-17 16:20:00,65.0,37.2,30.11,WSW,248,0.7,2.7,36,0.00,,,0.00,WUHU216HW,2013-04-17 20:20:00,
2013-04-17 16:25:00,65.0,37.9,30.11,WNW,293,1.1,2.7,37,0.00,,,0.00,WUHU216HW,2013-04-17 20:25:00,
2013-04-17 16:30:00,65.0,37.2,30.10,NNE,23,1.3,2.0,36,0.00,,,0.00,WUHU216HW,2013-04-17 20:30:00,
2013-04-17 16:35:00,64.8,37.8,30.10,NNW,338,1.6,2.0,37,0.00,,,0.00,WUHU216HW,2013-04-17 20:35:00,
2013-04-17 16:40:00,64.8,37.1,30.10,SW,225,3.1,3.1,36,0.00,,,0.00,WUHU216HW,2013-04-17 20:40:00,
2013-04-17 16:45:00,64.4,36.7,30.10,North,0,0.7,3.1,36,0.00,,,0.00,WUHU216HW,2013-04-17 20:45:00,
2013-04-17 16:50:00,64.3,36.5,30.10,NNE,23,2.5,3.1,36,0.00,,,0.00,WUHU216HW,2013-04-17 20:50:00,
2013-04-17 16:55:00,64.3,37.3,30.10,North,0,1.6,3.1,37,0.00,,,0.00,WUHU216HW,2013-04-17 20:55:00,
2013-04-17 17:00:00,64.3,37.3,30.11,WSW,248,1.8,2.2,37,0.00,,,0.00,WUHU216HW,2013-04-17 21:00:00,
2013-04-17 17:05:00,64.4,37.4,30.11,North,0,2.9,2.9,37,0.00,,,0.00,WUHU216HW,2013-04-17 21:05:00,
2013-04-17 17:10:00,64.1,34.9,30.11,NNE,23,2.0,2.9,34,0.00,,,0.00,WUHU216HW,2013-04-17 21:10:00,
2013-04-17 17:15:00,63.7,35.4,30.12,North,0,2.0,4.7,35,0.00,,,0.00,WUHU216HW,2013-04-17 21:15:00,
2013-04-17 17:20:00,63.5,36.6,30.12,NNE,23,0.2,4.7,37,0.00,,,0.00,WUHU216HW,2013-04-17 21:20:00,
2013-04-17 17:25:00,63.7,36.1,30.12,NNW,338,1.3,2.9,36,0.00,,,0.00,WUHU216HW,2013-04-17 21:25:00,
2013-04-17 17:30:00,63.5,35.9,30.12,North,0,1.6,2.0,36,0.00,,,0.00,WUHU216HW,2013-04-17 21:30:00,
2013-04-17 17:35:00,63.5,37.4,30.12,NNW,338,1.1,3.4,38,0.00,,,0.00,WUHU216HW,2013-04-17 21:35:00,
2013-04-17 17:40:00,63.4,36.5,30.12,North,0,0.2,3.4,37,0.00,,,0.00,WUHU216HW,2013-04-17 21:40:00,
2013-04-17 17:45:00,63.5,36.6,30.13,NE,45,2.9,2.9,37,0.00,,,0.00,WUHU216HW,2013-04-17 21:45:00,
2013-04-17 17:50:00,63.4,36.5,30.13,NNW,338,0.9,2.9,37,0.00,,,0.00,WUHU216HW,2013-04-17 21:50:00,
2013-04-17 17:55:00,63.5,36.6,30.13,ENE,68,0.7,2.5,37,0.00,,,0.00,WUHU216HW,2013-04-17 21:55:00,
2013-04-17 18:00:00,63.2,37.0,30.13,North,0,0.7,3.6,38,0.00,,,0.00,WUHU216HW,2013-04-17 22:00:00,
2013-04-17 18:05:00,63.0,35.5,30.13,NNE,23,2.5,3.6,36,0.00,,,0.00,WUHU216HW,2013-04-17 22:05:00,
2013-04-17 18:10:00,62.6,35.8,30.13,North,0,2.2,2.7,37,0.00,,,0.00,WUHU216HW,2013-04-17 22:10:00,
2013-04-17 18:15:00,62.6,37.3,30.13,NE,45,2.0,2.7,39,0.00,,,0.00,WUHU216HW,2013-04-17 22:15:00,
2013-04-17 18:20:00,62.5,36.4,30.13,SSW,203,0.4,2.2,38,0.00,,,0.00,WUHU216HW,2013-04-17 22:20:00,
2013-04-17 18:25:00,62.5,36.4,30.13,NNW,338,1.1,1.6,38,0.00,,,0.00,WUHU216HW,2013-04-17 22:25:00,
2013-04-17 18:30:00,62.3,36.9,30.13,North,0,0.0,1.1,39,0.00,,,0.00,WUHU216HW,2013-04-17 22:30:00,
2013-04-17 18:35:00,62.1,36.1,30.14,WNW,293,1.3,2.2,38,0.00,,,0.00,WUHU216HW,2013-04-17 22:35:00,
2013-04-17 18:40:00,61.7,36.5,30.14,North,0,1.3,2.2,39,0.00,,,0.00,WUHU216HW,2013-04-17 22:40:00,
2013-04-17 18:45:00,61.6,36.3,30.14,North,0,1.8,2.2,39,0.00,,,0.00,WUHU216HW,2013-04-17 22:45:00,
2013-04-17 18:50:00,61.0,35.8,30.15,NNW,338,1.1,2.5,39,0.00,,,0.00,WUHU216HW,2013-04-17 22:50:00,
2013-04-17 18:55:00,60.8,36.4,30.15,North,0,0.4,2.5,40,0.00,,,0.00,WUHU216HW,2013-04-17 22:55:00,
2013-04-17 19:00:00,60.3,35.9,30.15,North,0,1.1,3.1,40,0.00,,,0.00,WUHU216HW,2013-04-17 23:00:00,
2013-04-17 19:06:00,60.1,36.3,30.15,NNW,338,0.4,2.5,41,0.00,,,0.00,WUHU216HW,2013-04-17 23:06:00,
2013-04-17 19:11:00,59.6,35.8,30.15,SE,135,0.7,1.1,41,0.00,,,0.00,WUHU216HW,2013-04-17 23:11:00,
2013-04-17 19:16:00,59.2,36.1,30.15,NNE,23,0.7,1.8,42,0.00,,,0.00,WUHU216HW,2013-04-17 23:16:00,
2013-04-17 19:21:00,59.0,35.9,30.15,North,0,1.3,1.8,42,0.00,,,0.00,WUHU216HW,2013-04-17 23:21:00,
2013-04-17 19:26:00,58.7,36.2,30.15,North,0,1.1,2.7,43,0.00,,,0.00,WUHU216HW,2013-04-17 23:26:00,
2013-04-17 19:31:00,58.5,36.0,30.15,North,0,1.1,2.7,43,0.00,,,0.00,WUHU216HW,2013-04-17 23:31:00,
2013-04-17 19:36:00,58.3,35.8,30.15,NNE,23,1.1,2.5,43,0.00,,,0.00,WUHU216HW,2013-04-17 23:36:00,
2013-04-17 19:41:00,58.0,36.1,30.15,NNW,338,1.1,2.5,44,0.00,,,0.00,WUHU216HW,2013-04-17 23:41:00,
2013-04-17 19:46:00,57.6,35.7,30.15,North,0,0.9,1.1,44,0.00,,,0.00,WUHU216HW,2013-04-17 23:46:00,
2013-04-17 19:51:00,57.2,35.5,30.15,North,0,0.9,1.1,44,0.00,,,0.00,WUHU216HW,2013-04-17 23:51:00,
2013-04-17 19:56:00,57.1,35.3,30.15,North,0,0.7,2.0,44,0.00,,,0.00,WUHU216HW,2013-04-17 23:56:00,
2013-04-17 20:01:00,56.7,34.9,30.15,North,0,0.0,2.0,44,0.00,,,0.00,WUHU216HW,2013-04-18 00:01:00,
2013-04-17 20:06:00,56.2,35.0,30.15,NW,315,0.0,1.1,45,0.00,,,0.00,WUHU216HW,2013-04-18 00:06:00,
2013-04-17 20:11:00,56.0,34.8,30.15,NNW,338,0.0,1.1,45,0.00,,,0.00,WUHU216HW,2013-04-18 00:11:00,
2013-04-17 20:16:00,55.8,34.7,30.15,NNW,338,0.0,1.1,45,0.00,,,0.00,WUHU216HW,2013-04-18 00:16:00,
2013-04-17 20:21:00,55.4,34.8,30.16,North,0,0.4,2.9,46,0.00,,,0.00,WUHU216HW,2013-04-18 00:21:00,
2013-04-17 20:26:00,55.1,34.6,30.16,NNW,338,1.1,2.9,46,0.00,,,0.00,WUHU216HW,2013-04-18 00:26:00,
2013-04-17 20:31:00,54.7,34.2,30.16,NNW,338,0.0,1.1,46,0.00,,,0.00,WUHU216HW,2013-04-18 00:31:00,
2013-04-17 20:36:00,54.5,34.6,30.16,WNW,293,0.0,0.4,47,0.00,,,0.00,WUHU216HW,2013-04-18 00:36:00,
2013-04-17 20:41:00,54.2,33.8,30.16,WNW,293,0.0,0.4,46,0.00,,,0.00,WUHU216HW,2013-04-18 00:41:00,
2013-04-17 20:46:00,53.6,33.2,30.16,WNW,293,0.0,0.0,46,0.00,,,0.00,WUHU216HW,2013-04-18 00:46:00,
2013-04-17 20:52:00,53.1,33.3,30.16,WNW,293,0.0,0.0,47,0.00,,,0.00,WUHU216HW,2013-04-18 00:52:00,
2013-04-17 20:57:00,52.7,32.9,30.17,WNW,293,0.0,0.0,47,0.00,,,0.00,WUHU216HW,2013-04-18 00:57:00,
2013-04-17 21:02:00,52.2,33.0,30.17,WNW,293,0.9,0.9,48,0.00,,,0.00,WUHU216HW,2013-04-18 01:02:00,
2013-04-17 21:07:00,52.0,32.9,30.17,WNW,293,0.0,0.9,48,0.00,,,0.00,WUHU216HW,2013-04-18 01:07:00,
2013-04-17 21:12:00,51.8,33.3,30.17,WNW,293,0.0,0.4,49,0.00,,,0.00,WUHU216HW,2013-04-18 01:12:00,
2013-04-17 21:17:00,51.3,32.8,30.18,WNW,293,0.0,0.0,49,0.00,,,0.00,WUHU216HW,2013-04-18 01:17:00,
2013-04-17 21:22:00,50.8,32.9,30.18,WNW,293,0.0,0.0,50,0.00,,,0.00,WUHU216HW,2013-04-18 01:22:00,
2013-04-17 21:27:00,50.6,33.1,30.18,WNW,293,0.0,0.0,51,0.00,,,0.00,WUHU216HW,2013-04-18 01:27:00,
2013-04-17 21:32:00,50.4,33.0,30.18,WNW,293,0.0,0.4,51,0.00,,,0.00,WUHU216HW,2013-04-18 01:32:00,
2013-04-17 21:37:00,50.0,32.7,30.18,WNW,293,0.0,0.4,51,0.00,,,0.00,WUHU216HW,2013-04-18 01:37:00,
2013-04-17 21:42:00,49.7,33.2,30.18,WNW,293,0.0,0.0,53,0.00,,,0.00,WUHU216HW,2013-04-18 01:42:00,
2013-04-17 21:47:00,49.7,33.2,30.18,WNW,293,0.9,0.9,53,0.00,,,0.00,WUHU216HW,2013-04-18 01:47:00,
2013-04-17 21:52:00,49.5,33.5,30.18,WNW,293,0.0,0.9,54,0.00,,,0.00,WUHU216HW,2013-04-18 01:52:00,
2013-04-17 21:57:00,49.0,32.9,30.18,WNW,293,0.0,0.7,54,0.00,,,0.00,WUHU216HW,2013-04-18 01:57:00,
2013-04-17 22:02:00,48.6,32.7,30.18,WNW,293,0.0,0.0,54,0.00,,,0.00,WUHU216HW,2013-04-18 02:02:00,
2013-04-17 22:07:00,48.2,32.8,30.18,WNW,293,0.0,0.0,55,0.00,,,0.00,WUHU216HW,2013-04-18 02:07:00,
2013-04-17 22:12:00,48.2,33.7,30.18,WNW,293,0.0,0.0,57,0.00,,,0.00,WUHU216HW,2013-04-18 02:12:00,
2013-04-17 22:17:00,48.1,33.5,30.18,WNW,293,0.0,0.0,57,0.00,,,0.00,WUHU216HW,2013-04-18 02:17:00,
2013-04-17 22:22:00,47.7,33.7,30.18,WNW,293,0.0,0.0,58,0.00,,,0.00,WUHU216HW,2013-04-18 02:22:00,
2013-04-17 22:27:00,47.5,33.9,30.18,WNW,293,0.4,1.1,59,0.00,,,0.00,WUHU216HW,2013-04-18 02:27:00,
2013-04-17 22:32:00,47.7,34.6,30.17,WNW,293,0.4,1.3,60,0.00,,,0.00,WUHU216HW,2013-04-18 02:32:00,
2013-04-17 22:37:00,47.5,34.4,30.17,WNW,293,1.1,1.3,60,0.00,,,0.00,WUHU216HW,2013-04-18 02:37:00,
2013-04-17 22:42:00,47.5,34.4,30.17,WNW,293,0.7,1.3,60,0.00,,,0.00,WUHU216HW,2013-04-18 02:42:00,
2013-04-17 22:47:00,47.5,33.9,30.17,WNW,293,1.1,1.1,59,0.00,,,0.00,WUHU216HW,2013-04-18 02:47:00,
2013-04-17 22:52:00,47.5,33.9,30.17,WNW,293,0.9,1.1,59,0.00,,,0.00,WUHU216HW,2013-04-18 02:52:00,
2013-04-17 22:57:00,47.7,34.1,30.17,WNW,293,1.3,1.3,59,0.00,,,0.00,WUHU216HW,2013-04-18 02:57:00,
2013-04-17 23:02:00,47.5,34.7,30.17,NW,315,1.1,1.3,61,0.00,,,0.00,WUHU216HW,2013-04-18 03:02:00,
2013-04-17 23:07:00,47.2,34.0,30.17,North,0,0.4,1.1,60,0.00,,,0.00,WUHU216HW,2013-04-18 03:07:00,
2013-04-17 23:12:00,47.2,34.4,30.17,North,0,0.9,1.8,61,0.00,,,0.00,WUHU216HW,2013-04-18 03:12:00,
2013-04-17 23:17:00,47.2,34.4,30.17,North,0,0.0,1.8,61,0.00,,,0.00,WUHU216HW,2013-04-18 03:17:00,
2013-04-17 23:22:00,47.2,34.4,30.17,North,0,1.1,1.1,61,0.00,,,0.00,WUHU216HW,2013-04-18 03:22:00,
2013-04-17 23:27:00,47.0,33.8,30.18,North,0,0.0,1.1,60,0.00,,,0.00,WUHU216HW,2013-04-18 03:27:00,
2013-04-17 23:32:00,46.8,33.7,30.18,North,0,0.7,0.9,60,0.00,,,0.00,WUHU216HW,2013-04-18 03:32:00,
2013-04-17 23:37:00,46.6,35.1,30.19,North,0,1.3,1.3,64,0.00,,,0.00,WUHU216HW,2013-04-18 03:37:00,
2013-04-17 23:42:00,46.4,34.5,30.19,North,0,0.7,1.3,63,0.00,,,0.00,WUHU216HW,2013-04-18 03:42:00,
2013-04-17 23:47:00,46.4,34.5,30.19,North,0,0.9,1.1,63,0.00,,,0.00,WUHU216HW,2013-04-18 03:47:00,
2013-04-17 23:52:00,46.4,34.5,30.19,North,0,0.7,1.1,63,0.00,,,0.00,WUHU216HW,2013-04-18 03:52:00,
2013-04-17 23:57:00,46.4,34.5,30.19,North,0,0.7,1.1,63,0.00,,,0.00,WUHU216HW,2013-04-18 03:57:00,